When you browse on this site, cookies collect data to enhance your experience and personalize the content and advertising you see.
Visit our Privacy Policy to learn more. By continuing to use the site, you agree to this use of cookies and data.
  • In Hungary
  • List of Countries
  • For 7 days
  • Water Temperature
  • Weather Map
  • News
  • Weather Widgets
  • user-avatar
    Login

    Hourly Weather Kolodezskiy

    Today, 25 August, Sunday

    Time Temperature Precipitation Wind Pressure Humidity
    00:00 +16°C° 0 mm 2 mps 748 mmHg 70%
    01:00 +16°C° 0 mm 2 mps 748 mmHg 72%
    02:00 +15°C° 0 mm 2 mps 748 mmHg 74%
    03:00 +15°C° 0 mm 2 mps 748 mmHg 79%
    04:00 +15°C° 0 mm 2 mps 748 mmHg 84%
    05:00 +15°C° 0 mm 2 mps 748 mmHg 88%
    06:00 +16°C° 0 mm 3 mps 748 mmHg 84%
    07:00 +18°C° 0 mm 3 mps 749 mmHg 79%
    08:00 +19°C° 0 mm 3 mps 749 mmHg 74%
    09:00 +20°C° 0 mm 4 mps 749 mmHg 68%
    10:00 +21°C° 0 mm 4 mps 749 mmHg 62%
    11:00 +22°C° 0 mm 4 mps 749 mmHg 55%
    12:00 +23°C° 0 mm 4 mps 749 mmHg 53%
    13:00 +23°C° 0 mm 4 mps 749 mmHg 51%
    14:00 +23°C° 0 mm 4 mps 749 mmHg 50%
    15:00 +22°C° 0 mm 4 mps 749 mmHg 53%
    16:00 +22°C° 0 mm 4 mps 749 mmHg 56%
    17:00 +21°C° 0 mm 3 mps 749 mmHg 60%
    18:00 +20°C° 0 mm 3 mps 749 mmHg 65%
    19:00 +18°C° 0 mm 3 mps 750 mmHg 70%
    20:00 +16°C° 0 mm 3 mps 750 mmHg 76%
    21:00 +16°C° 0 mm 2 mps 750 mmHg 78%
    22:00 +15°C° 0 mm 2 mps 750 mmHg 80%
    23:00 +15°C° 0 mm 2 mps 751 mmHg 83%

    Tomorrow, 26 August, Monday

    Time Temperature Precipitation Wind Pressure Humidity
    00:00 +14°C° 0 mm 2 mps 751 mmHg 85%
    01:00 +14°C° 0 mm 2 mps 751 mmHg 87%
    02:00 +13°C° 0 mm 2 mps 751 mmHg 90%
    03:00 +13°C° 0 mm 2 mps 751 mmHg 91%
    04:00 +13°C° 0 mm 2 mps 751 mmHg 92%
    05:00 +13°C° 0 mm 2 mps 751 mmHg 93%
    06:00 +14°C° 0 mm 2 mps 751 mmHg 85%
    07:00 +16°C° 0 mm 2 mps 751 mmHg 78%
    08:00 +17°C° 0 mm 2 mps 752 mmHg 70%
    09:00 +19°C° 0 mm 2 mps 752 mmHg 63%
    10:00 +20°C° 0 mm 2 mps 751 mmHg 56%
    11:00 +21°C° 0 mm 2 mps 751 mmHg 50%
    12:00 +21°C° 0 mm 2 mps 751 mmHg 47%
    13:00 +23°C° 0 mm 1 mps 751 mmHg 45%
    14:00 +24°C° 0 mm 1 mps 751 mmHg 42%
    15:00 +23°C° 0 mm 1 mps 750 mmHg 45%
    16:00 +21°C° 0 mm 0 mps 750 mmHg 47%
    17:00 +21°C° 0 mm 0 mps 749 mmHg 50%
    18:00 +19°C° 0 mm 0 mps 749 mmHg 52%
    19:00 +18°C° 0 mm 0 mps 749 mmHg 55%
    20:00 +16°C° 0 mm 0 mps 749 mmHg 57%
    21:00 +16°C° 0 mm 1 mps 749 mmHg 59%
    22:00 +16°C° 0 mm 1 mps 749 mmHg 61%
    23:00 +15°C° 0 mm 1 mps 748 mmHg 62%

    Day after tomorrow, 27 August, Tuesday

    Time Temperature Precipitation Wind Pressure Humidity
    00:00 +15°C° 0 mm 2 mps 748 mmHg 65%
    01:00 +15°C° 0 mm 2 mps 748 mmHg 67%
    02:00 +14°C° 0 mm 2 mps 748 mmHg 69%
    03:00 +14°C° 0 mm 2 mps 747 mmHg 72%
    04:00 +14°C° 0 mm 2 mps 747 mmHg 74%
    05:00 +14°C° 0 mm 2 mps 747 mmHg 77%
    06:00 +14°C° 0 mm 3 mps 746 mmHg 74%
    07:00 +17°C° 0 mm 3 mps 746 mmHg 71%
    08:00 +18°C° 0 mm 4 mps 746 mmHg 68%
    09:00 +20°C° 0 mm 4 mps 746 mmHg 64%
    10:00 +21°C° 0 mm 5 mps 745 mmHg 61%
    11:00 +22°C° 0 mm 5 mps 745 mmHg 57%
    12:00 +23°C° 0.2 mm 5 mps 745 mmHg 59%
    13:00 +23°C° 0.2 mm 6 mps 744 mmHg 60%
    14:00 +23°C° 0.2 mm 6 mps 744 mmHg 62%
    15:00 +22°C° 0.1 mm 6 mps 744 mmHg 64%
    16:00 +21°C° 0.1 mm 5 mps 743 mmHg 67%
    17:00 +21°C° 0.1 mm 5 mps 743 mmHg 69%
    18:00 +19°C° 0 mm 5 mps 743 mmHg 72%
    19:00 +17°C° 0 mm 5 mps 744 mmHg 74%
    20:00 +17°C° 0 mm 4 mps 744 mmHg 77%
    21:00 +15°C° 0 mm 4 mps 744 mmHg 76%
    22:00 +14°C° 0 mm 4 mps 744 mmHg 76%
    23:00 +14°C° 0 mm 4 mps 744 mmHg 76%

    28 August, Wednesday

    Time Temperature Precipitation Wind Pressure Humidity
    00:00 +13°C° 0 mm 3 mps 744 mmHg 78%
    01:00 +12°C° 0 mm 3 mps 745 mmHg 81%
    02:00 +12°C° 0 mm 3 mps 745 mmHg 83%
    03:00 +11°C° 0 mm 3 mps 745 mmHg 84%
    04:00 +10°C° 0 mm 4 mps 745 mmHg 84%
    05:00 +10°C° 0 mm 4 mps 746 mmHg 85%
    06:00 +10°C° 0 mm 4 mps 746 mmHg 76%
    07:00 +10°C° 0 mm 5 mps 746 mmHg 66%
    08:00 +12°C° 0 mm 5 mps 747 mmHg 57%
    09:00 +13°C° 0 mm 5 mps 747 mmHg 55%
    10:00 +14°C° 0 mm 5 mps 747 mmHg 53%
    11:00 +15°C° 0 mm 5 mps 747 mmHg 51%
    12:00 +15°C° 0 mm 5 mps 747 mmHg 49%
    13:00 +16°C° 0 mm 5 mps 747 mmHg 47%
    14:00 +17°C° 0 mm 6 mps 746 mmHg 45%
    15:00 +16°C° 0 mm 5 mps 746 mmHg 47%
    16:00 +15°C° 0 mm 5 mps 746 mmHg 48%
    17:00 +15°C° 0 mm 5 mps 746 mmHg 50%
    18:00 +13°C° 0 mm 4 mps 747 mmHg 54%
    19:00 +11°C° 0 mm 4 mps 747 mmHg 58%
    20:00 +10°C° 0 mm 3 mps 747 mmHg 62%
    21:00 +9°C° 0 mm 3 mps 748 mmHg 65%
    22:00 +8°C° 0 mm 3 mps 748 mmHg 69%
    23:00 +8°C° 0 mm 3 mps 748 mmHg 72%

    29 August, Thursday

    Time Temperature Precipitation Wind Pressure Humidity
    00:00 +7°C° 0 mm 3 mps 748 mmHg 74%
    01:00 +6°C° 0 mm 2 mps 748 mmHg 76%
    02:00 +6°C° 0 mm 2 mps 748 mmHg 78%
    03:00 +6°C° 0 mm 2 mps 749 mmHg 79%
    04:00 +5°C° 0 mm 2 mps 749 mmHg 80%
    05:00 +5°C° 0 mm 2 mps 749 mmHg 82%
    06:00 +7°C° 0 mm 3 mps 749 mmHg 76%
    07:00 +8°C° 0 mm 4 mps 749 mmHg 70%
    08:00 +10°C° 0 mm 4 mps 750 mmHg 64%
    09:00 +11°C° 0 mm 4 mps 750 mmHg 60%
    10:00 +13°C° 0 mm 4 mps 750 mmHg 56%
    11:00 +14°C° 0 mm 4 mps 749 mmHg 52%
    12:00 +14°C° 0 mm 4 mps 749 mmHg 51%
    13:00 +15°C° 0 mm 4 mps 749 mmHg 50%
    14:00 +15°C° 0 mm 4 mps 749 mmHg 50%
    15:00 +15°C° 0 mm 4 mps 749 mmHg 52%
    16:00 +15°C° 0 mm 4 mps 749 mmHg 54%
    17:00 +14°C° 0 mm 4 mps 749 mmHg 56%
    18:00 +13°C° 0 mm 4 mps 749 mmHg 61%
    19:00 +11°C° 0 mm 3 mps 749 mmHg 66%
    20:00 +9°C° 0 mm 3 mps 749 mmHg 71%
    21:00 +9°C° 0 mm 3 mps 749 mmHg 73%
    22:00 +8°C° 0 mm 2 mps 749 mmHg 74%
    23:00 +8°C° 0 mm 2 mps 749 mmHg 76%

    30 August, Friday

    Time Temperature Precipitation Wind Pressure Humidity
    00:00 +7°C° 0 mm 2 mps 749 mmHg 77%
    01:00 +7°C° 0 mm 2 mps 749 mmHg 79%
    02:00 +6°C° 0 mm 2 mps 749 mmHg 81%
    03:00 +6°C° 0 mm 2 mps 749 mmHg 82%
    04:00 +6°C° 0 mm 2 mps 749 mmHg 83%
    05:00 +6°C° 0 mm 2 mps 749 mmHg 84%
    06:00 +8°C° 0 mm 2 mps 749 mmHg 76%
    07:00 +9°C° 0 mm 3 mps 749 mmHg 67%
    08:00 +11°C° 0 mm 3 mps 749 mmHg 59%
    09:00 +13°C° 0 mm 3 mps 749 mmHg 54%
    10:00 +14°C° 0 mm 3 mps 749 mmHg 48%
    11:00 +16°C° 0 mm 3 mps 749 mmHg 43%
    12:00 +17°C° 0 mm 3 mps 749 mmHg 41%
    13:00 +18°C° 0 mm 3 mps 748 mmHg 39%
    14:00 +19°C° 0 mm 4 mps 748 mmHg 37%
    15:00 +18°C° 0 mm 3 mps 748 mmHg 42%
    16:00 +17°C° 0 mm 3 mps 747 mmHg 46%
    17:00 +17°C° 0 mm 3 mps 747 mmHg 50%
    18:00 +16°C° 0 mm 3 mps 747 mmHg 56%
    19:00 +13°C° 0 mm 3 mps 747 mmHg 61%
    20:00 +12°C° 0 mm 3 mps 747 mmHg 66%
    21:00 +12°C° 0 mm 3 mps 746 mmHg 69%
    22:00 +12°C° 0 mm 3 mps 746 mmHg 71%
    23:00 +12°C° 0 mm 3 mps 746 mmHg 74%
    Show more